Home   Weather   Sarpsborg   Past weeks

Flag for Norway Past Weather in Sarpsborg, Norway — Yesterday and Last 2 Weeks

Now
63 °F

Scattered clouds.


Feels Like: 63 °F
Forecast: 53 / 76 °F
Wind: 2 mph from North

Location: Rygge

Current Time: Jul 21, 2017 at 6:54:08 pm

Latest Report: Jul 21, 2017 at 6:20 pm


Visibility: N/A

Pressure: 30.07 "Hg

Humidity: 68%

Dew Point: 52 °F

Location of SarpsborgLocation

Past Weather in Sarpsborg — Graph

°F

Sarpsborg Temperature Yesterday

Maximum temperature yesterday: 77 °F (at 3:20 pm)
Minimum temperature yesterday: 48 °F (at 4:20 am)
Average temperature yesterday: 65 °F

High & Low Weather Summary for the Past Weeks

 TemperatureHumidityPressure
High77 °F (Jul 20, 3:20 pm)100% (Jul 8, 6:20 am)30.09 "Hg (Jul 8, 6:20 am)
Low45 °F (Jul 13, 3:50 am)31% (Jul 14, 3:20 pm)29.53 "Hg (Jul 12, 2:20 am)
Average61 °F70%29.86 "Hg
* Reported Jul 6 5:20 pm — Jul 21 5:20 pm, Sarpsborg. Weather by CustomWeather, © 2017

Note: Actual official high and low records may vary slightly from our data, if they occured in-between our weather recording intervals... More about our weather records

Advertising

Sarpsborg Weather History for the Previous 24 Hours

Scroll right to see more
 ConditionsComfort  
Time TempWeatherWind HumidityBarometerVisibility
5:20 pm
Fri, Jul 21
64 °FScattered clouds.2 mph60%30.07 "HgN/A
4:50 pm64 °FScattered clouds.3 mph60%30.07 "HgN/A
4:20 pm64 °FScattered clouds.7 mph60%30.07 "HgN/A
3:20 pm64 °FLight rain. Partly sunny.2 mph60%30.04 "HgN/A
2:50 pm63 °FLight rain. Passing clouds.5 mph68%30.04 "HgN/A
2:20 pm63 °FLight rain. Partly sunny.5 mph77%30.04 "HgN/A
1:50 pm64 °FLight rain. Partly sunny.3 mph64%30.04 "HgN/A
1:20 pm64 °FPassing clouds.5 mph60%30.04 "HgN/A
12:50 pm64 °FSunny.6 mph60%30.04 "Hg10 mi
12:20 pm64 °FSunny.7 mph60%30.01 "Hg10 mi
11:50 am64 °FPassing clouds.6 mph60%30.01 "HgN/A
11:20 am64 °FSunny.6 mph60%30.01 "Hg10 mi
10:50 am66 °FPassing clouds.5 mph64%29.98 "HgN/A
10:20 am66 °FSunny.7 mph60%29.98 "Hg10 mi
9:50 am66 °FSunny.8 mph56%29.98 "Hg10 mi
9:20 am64 °FPassing clouds.6 mph64%29.95 "HgN/A
8:50 am64 °FSunny.6 mph64%29.95 "Hg10 mi
8:20 am63 °FSunny.6 mph73%29.95 "Hg10 mi
7:50 am63 °FScattered clouds.7 mph68%29.95 "HgN/A
7:20 am63 °FPartly sunny.3 mph68%29.92 "HgN/A
6:50 am63 °FScattered clouds.2 mph68%29.92 "HgN/A
6:20 am63 °FPartly sunny.3 mph64%29.92 "HgN/A
5:50 am61 °FPassing clouds.3 mph68%29.92 "HgN/A
5:20 am61 °FScattered clouds.3 mph63%29.92 "HgN/A
4:50 am61 °FPartly sunny.3 mph63%29.89 "HgN/A
4:20 am61 °FPassing clouds.5 mph59%29.89 "HgN/A
3:50 am61 °FRefreshingly cool.7 mph59%29.89 "HgN/A
3:20 am61 °FRefreshingly cool.7 mph59%29.89 "HgN/A
2:50 am59 °FCool.5 mph63%29.89 "HgN/A
2:20 am59 °FCool.5 mph63%29.89 "HgN/A
1:50 am61 °FRefreshingly cool.6 mph59%29.89 "HgN/A
1:20 am61 °FRefreshingly cool.5 mph59%29.89 "HgN/A
12:50 am63 °FMild.5 mph52%29.89 "HgN/A
12:20 am63 °FMild.5 mph52%29.89 "HgN/A
11:50 pm
Thu, Jul 20
63 °FMild.7 mph52%29.89 "HgN/A
11:20 pm64 °FMild.7 mph49%29.89 "HgN/A
10:50 pm64 °FMild.9 mph52%29.89 "HgN/A
10:20 pm66 °FMild.7 mph52%29.86 "HgN/A
9:20 pm72 °FMild.1 mph47%29.86 "HgN/A
8:50 pm73 °FMild.2 mph41%29.86 "HgN/A
8:20 pm73 °FPassing clouds.2 mph44%29.86 "HgN/A
7:50 pm73 °FSunny.5 mph41%29.86 "Hg10 mi
7:20 pm75 °FSunny.6 mph39%29.86 "Hg10 mi
6:50 pm75 °FPassing clouds.7 mph39%29.86 "HgN/A
Weather by CustomWeather, © 2017

See weather overviewHow to use our weather pages